FW7254 Weather Reports


Display with metric or nautical units.
time (UTC)temp
F
wind
direction
speed
MPH
gust
MPH
rain 1hr
in
rain 24hr
in
rain mn
in
humidity
%
barometer
mb
20260902104813 81 58 0.0 0.0 0.00 0.00 0.00 82 1012.9
20260902103316 81 58 0.0 0.0 0.00 0.00 0.00 81 1012.9
20260902101827 81 58 0.0 0.0 0.00 0.00 0.00 81 1012.7
20260902100352 81 57 0.0 0.0 0.00 0.00 0.00 81 1012.5
20260902094812 81 58 0.0 0.0 0.00 0.00 0.00 80 1012.1
20260902093319 82 58 0.0 0.0 0.00 0.00 0.00 80 1012.1
20260902091828 82 58 0.0 0.0 0.00 0.00 0.00 80 1011.9
20260902090331 82 57 0.0 0.0 0.00 0.00 0.00 81 1012.1
20260902084830 83 58 0.0 0.0 0.00 0.00 0.00 81 1012.1
20260902083314 83 58 0.0 0.0 0.00 0.00 0.00 80 1012.2
20260902081822 84 58 1.0 0.0 0.00 0.00 0.00 79 1012.3
20260902080325 84 57 0.0 0.0 0.00 0.00 0.00 77 1012.3
20260902074814 85 57 0.0 0.0 0.00 0.00 0.00 76 1012.1
20260902073313 86 58 1.0 0.0 0.00 0.00 0.00 75 1012.0
20260902071823 86 58 1.0 0.0 0.00 0.00 0.00 72 1011.9
20260902070311 88 58 0.0 0.0 0.00 0.00 0.00 68 1011.8
20260902064820 88 58 0.0 0.0 0.00 0.00 0.00 68 1011.5
20260902063318 88 58 0.0 0.0 0.00 0.00 0.00 66 1011.3
20260902061854 88 57 0.0 0.0 0.00 0.00 0.00 67 1011.3
20260902060357 88 58 0.0 0.0 0.00 0.00 0.00 69 1011.5
20260902054817 88 57 0.0 0.0 0.00 0.00 0.00 69 1011.7
20260902053321 88 58 0.0 0.0 0.00 0.00 0.00 69 1011.8
20260902051828 88 58 0.0 0.0 0.00 0.00 0.00 68 1011.9
20260902050330 88 57 0.0 0.0 0.00 0.00 0.00 68 1012.0
20260902044817 88 58 0.0 0.0 0.00 0.00 0.00 68 1012.3
20260902043315 89 58 0.0 0.0 0.00 0.00 0.00 68 1012.3
20260902041822 88 58 0.0 0.0 0.00 0.00 0.00 69 1012.1
20260902040328 88 58 1.0 0.0 0.00 0.00 0.00 69 1012.4
20260902034837 87 58 0.0 0.0 0.00 0.00 0.00 71 1012.5
20260902033341 86 57 0.0 0.0 0.00 0.00 0.00 72 1012.7
20260902031826 87 57 0.0 0.0 0.00 0.00 0.00 72 1012.8
20260902030315 87 57 0.0 0.0 0.00 0.00 0.00 72 1012.8
20260902024817 86 58 0.0 0.0 0.00 0.00 0.00 73 1013.0
20260902023328 85 58 0.0 0.0 0.00 0.00 0.00 75 1013.0
20260902021829 85 57 0.0 0.0 0.00 0.00 0.00 76 1013.0
20260902020332 84 58 0.0 0.0 0.00 0.00 0.00 77 1013.2
20260902014840 83 58 0.0 0.0 0.00 0.00 0.00 81 1013.5
20260902013352 82 58 0.0 0.0 0.00 0.00 0.00 82 1013.8
20260902011857 82 58 0.0 0.0 0.00 0.00 0.00 82 1013.9
20260902010314 81 58 0.0 0.0 0.00 0.00 0.00 84 1013.9
20260902004820 81 58 0.0 0.0 0.00 0.00 0.00 83 1013.9
20260902003326 81 57 0.0 0.0 0.00 0.00 0.00 83 1013.9
20260902001826 81 58 0.0 0.0 0.00 0.00 0.00 83 1013.8
20260902000329 80 58 0.0 0.0 0.00 0.00 0.00 84 1013.7
20260901234817 80 57 0.0 0.0 0.00 0.00 0.00 84 1013.9
20260901233324 80 58 0.0 0.0 0.00 0.00 0.00 85 1013.7
20260901231825 79 57 0.0 0.0 0.00 0.00 0.00 87 1013.8
20260901230327 79 58 0.0 0.0 0.00 0.00 0.00 87 1013.7
20260901224831 78 57 0.0 0.0 0.00 0.00 0.00 87 1013.8
20260901223315 78 58 0.0 0.0 0.00 0.00 0.00 88 1013.6
20260901221822 78 58 0.0 0.0 0.00 0.00 0.00 88 1013.7
20260901220327 78 57 0.0 0.0 0.00 0.00 0.00 89 1013.9
20260901214835 77 58 0.0 0.0 0.00 0.00 0.00 89 1014.0
20260901213319 77 58 0.0 0.0 0.00 0.00 0.00 90 1013.9
20260901211819 77 58 0.0 0.0 0.00 0.00 0.00 90 1014.0
20260901210351 77 57 0.0 0.0 0.00 0.00 0.00 90 1014.0
20260901204830 77 58 0.0 0.0 0.00 0.00 0.00 90 1014.0
20260901203331 77 58 0.0 0.0 0.00 0.00 0.00 90 1014.1
20260901201818 77 58 0.0 0.0 0.00 0.00 0.00 90 1014.1
20260901200322 77 57 0.0 0.0 0.00 0.00 0.00 90 1014.2
20260901194830 77 57 0.0 0.0 0.00 0.00 0.00 90 1014.2
20260901193312 77 58 0.0 0.0 0.00 0.00 0.00 90 1014.3
20260901191820 77 58 0.0 0.0 0.00 0.00 0.00 90 1014.2
20260901190326 77 58 0.0 0.0 0.00 0.00 0.00 90 1014.3
20260901184831 77 57 0.0 0.0 0.00 0.00 0.00 90 1014.2
20260901183311 77 58 0.0 0.0 0.00 0.00 0.00 90 1014.2
20260901181813 77 58 0.0 0.0 0.00 0.00 0.00 90 1014.4
20260901180317 77 58 0.0 0.0 0.00 0.00 0.00 89 1014.5
20260901174827 77 58 0.0 0.0 0.00 0.00 0.00 89 1014.7
20260901173331 77 57 0.0 0.0 0.00 0.00 0.00 89 1014.8
20260901171819 77 58 0.0 0.0 0.00 0.00 0.00 89 1014.7
20260901170346 77 58 0.0 0.0 0.00 0.00 0.00 89 1014.6
20260901164831 77 58 0.0 0.0 0.00 0.00 0.00 89 1014.6
20260901163329 77 58 0.0 0.0 0.00 0.00 0.00 88 1014.8
20260901161820 77 58 0.0 0.0 0.00 0.00 0.00 88 1014.8
20260901160327 77 58 0.0 0.0 0.00 0.00 0.00 88 1014.8
20260901154828 77 57 0.0 0.0 0.00 0.00 0.00 88 1014.9
20260901153315 77 58 0.0 0.0 0.00 0.00 0.00 88 1015.2
20260901151822 78 57 0.0 0.0 0.00 0.00 0.00 88 1015.3
20260901150327 78 55 0.0 0.0 0.00 0.00 0.00 88 1015.4
20260901144834 78 58 0.0 0.0 0.00 0.00 0.00 88 1015.5
20260901143315 78 58 0.0 0.0 0.00 0.00 0.00 88 1015.6
20260901141820 78 58 0.0 0.0 0.00 0.00 0.00 88 1015.7
20260901134821 79 58 0.0 0.0 0.00 0.00 0.00 88 1015.6
20260901133327 79 58 0.0 0.0 0.00 0.00 0.00 88 1015.7
20260901131835 79 58 0.0 0.0 0.00 0.00 0.00 88 1015.5
20260901130314 79 59 0.0 0.0 0.00 0.00 0.00 88 1015.4
20260901124821 79 58 0.0 0.0 0.00 0.00 0.00 88 1015.7
20260901123319 79 58 0.0 0.0 0.00 0.00 0.00 87 1015.8
20260901121833 79 57 0.0 0.0 0.00 0.00 0.00 87 1015.8
20260901120327 79 57 0.0 0.0 0.00 0.00 0.00 87 1015.9
20260901114815 79 57 0.0 0.0 0.00 0.00 0.00 87 1015.9
20260901113312 80 58 0.0 0.0 0.00 0.00 0.00 86 1015.9
20260901111824 80 57 0.0 0.0 0.00 0.00 0.00 86 1015.8
20260901110328 80 58 0.0 0.0 0.00 0.00 0.00 85 1015.8